Garden City, KS

2:30 AM CST on January 20, 2018 (GMT -0600)
Garden City Regional

Weather History for KGCK - November, 2012

Change the Weather History Date:

Sunday, November 4, 2012

  Actual Average Record
Temperature  
Mean Temperature 51 °F 47 °F  
Max Temperature 70 °F 62 °F 81 °F (2008)
Min Temperature 32 °F 33 °F 2 °F (1991)
Degree Days  
Heating Degree Days 14 18  
Month to date heating degree days 49 68  
Since 1 July heating degree days 480 458  
Cooling Degree Days 0 0  
Month to date cooling degree days 0 0  
Year to date cooling degree days 1643 1298  
Growing Degree Days 1 (Base 50)    
Moisture  
Dew Point 30 °F    
Average Humidity 53    
Maximum Humidity 82    
Minimum Humidity 23    
Precipitation  
Precipitation 0.00 in 0.02 in 0.28 in (1953)
Month to date precipitation 0.00 0.08  
Year to date precipitation 12.67 18.48  
Sea Level Pressure  
Sea Level Pressure 30.13 in    
Wind  
Wind Speed 8 mph (SW)    
Max Wind Speed 17 mph    
Max Gust Speed 21 mph    
Visibility 10 miles    
Events      
T = Trace of Precipitation, MM = Missing Value Source: NWS Daily Summary

Daily Weather History Graph

Daily Weather History Graph

Search for Another Location

Airport or City:

Trip Planner

Search our weather history database for the weather conditions in past years. The results will help you decide how hot, cold, wet, or windy it might be!

Date:

Astronomy

Nov. 04, 2012 Rise Set
Actual Time 7:12 AM CST 5:40 PM CST
Civil Twilight 6:44 AM CST 6:07 PM CST
Nautical Twilight 6:13 AM CST 6:38 PM CST
Astronomical Twilight 5:42 AM CST 7:09 PM CST
Moon 10:20 PM CST (11/4) 11:56 AM CST (11/4)
Length of Visible Light 11h 22m
Length of Day
10h 28m
Waning Gibbous, 72% of the Moon is Illuminated
Nov 4
Waning Gibbous
Nov 6
Last Quarter
Nov 13
New
Nov 20
First Quarter
Nov 28
Full

Hourly Weather History & Observations

Time (CST) Temp. Windchill Dew Point Humidity Pressure Visibility Wind Dir Wind Speed Gust Speed Precip Events Conditions
12:54 AM 41.0 °F 36.4 °F 30.0 °F 65% 30.19 in 10.0 mi South 6.9 mph - N/A   Clear
1:54 AM 37.0 °F 31.6 °F 28.9 °F 73% 30.19 in 10.0 mi South 6.9 mph - N/A   Clear
1:54 AM 35.1 °F 28.6 °F 28.9 °F 78% 30.18 in 10.0 mi SSW 8.1 mph - N/A   Clear
2:54 AM 35.1 °F 28.6 °F 28.9 °F 78% 30.17 in 10.0 mi SW 8.1 mph - N/A   Clear
3:54 AM 35.1 °F 28.6 °F 28.9 °F 78% 30.17 in 10.0 mi SW 8.1 mph - N/A   Clear
4:54 AM 34.0 °F 27.2 °F 28.9 °F 82% 30.17 in 10.0 mi WSW 8.1 mph - N/A   Clear
5:54 AM 33.1 °F 26.9 °F 28.0 °F 82% 30.19 in 10.0 mi SW 6.9 mph - N/A   Clear
6:54 AM 33.1 °F 26.9 °F 28.0 °F 82% 30.19 in 10.0 mi SW 6.9 mph - N/A   Clear
7:54 AM 35.1 °F 31.0 °F 30.0 °F 82% 30.20 in 10.0 mi South 4.6 mph - N/A   Clear
8:54 AM 42.1 °F 37.1 °F 32.0 °F 67% 30.18 in 10.0 mi SSW 8.1 mph - N/A   Clear
9:54 AM 51.1 °F - 34.0 °F 52% 30.15 in 10.0 mi SW 13.8 mph - N/A   Clear
10:54 AM 55.9 °F - 35.1 °F 45% 30.14 in 10.0 mi SW 13.8 mph - N/A   Clear
11:54 AM 61.0 °F - 34.0 °F 36% 30.11 in 10.0 mi SW 10.4 mph - N/A   Clear
12:54 PM 64.0 °F - 32.0 °F 30% 30.07 in 10.0 mi WSW 10.4 mph - N/A   Clear
1:54 PM 66.0 °F - 32.0 °F 28% 30.05 in 10.0 mi SSW 5.8 mph - N/A   Clear
2:54 PM 69.1 °F - 30.9 °F 24% 30.03 in 10.0 mi WSW 9.2 mph - N/A   Clear
3:54 PM 69.1 °F - 30.9 °F 24% 30.02 in 10.0 mi SW 5.8 mph - N/A   Clear
4:54 PM 68.0 °F - 30.9 °F 25% 30.03 in 10.0 mi SSW 5.8 mph - N/A   Clear
5:54 PM 57.9 °F - 32.0 °F 37% 30.06 in 10.0 mi NE 4.6 mph - N/A   Clear
6:54 PM 54.0 °F - 32.0 °F 43% 30.09 in 10.0 mi Calm Calm - N/A   Clear
7:54 PM 53.1 °F - 30.9 °F 43% 30.12 in 10.0 mi North 8.1 mph - N/A   Partly Cloudy
8:54 PM 55.9 °F - 27.0 °F 33% 30.12 in 10.0 mi NNE 11.5 mph - N/A   Overcast
9:54 PM 55.0 °F - 26.1 °F 33% 30.13 in 10.0 mi NNE 9.2 mph - N/A   Clear
10:54 PM 51.1 °F - 27.0 °F 39% 30.15 in 10.0 mi North 10.4 mph - N/A   Partly Cloudy